Wetbulb
62.94 58.67 58.22 55.82 47.79 46.78 44.17 49.37 54.27 58.04 58.53 62.63 65.56 64.30 63.38 64.38 62.17 58.65 71.46 74.30 74.32 74.40 75.92 77.21 77.99 78.27 78.07 77.66 77.25 76.75 76.47 76.54 76.57 76.57 76.59 76.69 77.04 77.24 77.40 76.93 76.33 76.07 75.43 74.94 74.67 74.28 74.25 73.97 73.56
59.19 59.09 55.64 51.61 44.31 41.93 45.17 53.09 52.51 58.74 59.74 65.92 65.67 65.24 64.22 61.97 67.12 70.16 71.08 74.17 74.44 74.60 74.99 76.29 77.83 78.03 78.04 77.71 77.10 76.59 76.47 76.52 76.55 76.44 76.66 76.71 76.76 77.07 77.32 77.00 76.43 75.94 74.25 73.94 74.02 74.04 73.93 73.78 73.48
62.11 58.63 48.90 46.60 43.92 43.13 45.97 52.23 55.46 58.79 59.36 59.76 65.07 66.71 64.80 64.35 70.41 70.77 73.34 74.50 74.31 73.83 74.77 76.77 77.70 77.77 77.88 77.70 76.87 76.57 76.54 76.57 76.55 76.70 76.82 76.76 76.69 76.71 76.79 76.42 75.85 75.45 73.79 73.47 73.69 73.68 74.06 73.73 73.69
55.15 52.62 50.42 43.89 42.97 48.99 51.35 54.13 56.48 57.99 59.45 58.97 66.13 61.93 64.36 68.59 70.76 72.81 73.61 74.83 73.33 73.80 75.30 77.19 77.46 77.59 77.65 77.55 76.85 76.57 76.62 76.69 76.70 76.75 76.66 76.74 76.71 76.36 76.21 75.90 75.38 75.26 74.38 73.45 73.69 74.45 74.74 74.23 73.81
53.44 49.86 42.99 42.31 46.05 50.96 54.20 56.24 57.75 56.85 59.19 58.35 63.27 61.52 63.34 66.29 72.34 73.75 73.71 74.15 73.04 74.06 75.21 76.48 77.26 77.44 77.60 77.53 76.95 76.62 76.72 76.39 76.49 76.67 76.74 76.64 76.36 76.03 75.91 75.65 75.65 75.30 74.88 74.44 74.14 74.69 74.47 74.18 74.07
49.93 47.61 39.91 40.56 46.55 52.57 55.19 56.86 57.35 58.38 58.51 58.86 64.31 62.92 63.77 69.54 71.30 72.76 73.57 73.41 74.26 73.98 74.64 75.65 76.96 77.13 77.03 77.11 77.04 76.66 76.38 76.30 76.33 76.44 76.41 76.28 75.95 75.76 75.64 75.54 75.42 75.15 74.52 74.24 74.24 74.10 74.03 73.78 73.53
46.61 45.19 41.12 43.99 46.84 50.08 53.92 57.69 56.92 56.49 58.25 56.75 62.77 63.90 65.73 68.37 70.45 72.65 72.74 73.57 74.46 73.63 73.56 74.34 75.55 76.55 77.08 76.97 76.70 76.39 76.19 75.96 76.12 76.02 75.95 75.80 75.65 75.58 75.51 75.24 75.12 74.75 74.10 73.75 73.73 73.60 73.58 73.13 72.91
49.05 45.47 44.16 45.60 46.97 48.61 54.70 57.47 57.09 57.60 57.43 58.31 64.03 63.62 62.42 65.96 69.32 70.63 73.73 73.73 72.69 72.40 72.50 72.26 73.55 74.96 75.41 75.79 76.82 76.39 76.13 76.16 75.95 75.87 75.82 75.55 75.42 75.38 75.38 74.43 74.57 74.60 74.03 73.93 73.60 73.43 73.18 72.51 72.12
51.81 40.35 42.01 44.97 46.83 50.71 54.72 54.72 56.36 57.95 56.47 56.78 69.90 69.07 68.10 68.26 70.82 68.50 72.06 71.99 71.19 71.41 71.16 70.95 71.71 71.69 72.85 73.90 75.88 76.38 76.58 76.34 76.04 75.71 75.59 74.49 72.48 73.16 73.95 73.91 74.14 74.55 74.18 73.85 73.58 73.18 72.49 72.09 71.72
47.45 40.04 42.67 49.79 51.67 50.90 54.88 53.71 53.10 54.80 55.11 55.10 66.10 66.69 67.22 68.00 70.29 68.68 67.30 69.92 70.07 69.78 70.33 70.43 69.89 70.10 69.94 73.47 73.44 73.04 74.53 74.10 73.56 73.37 73.08 71.47 70.02 70.79 72.08 72.78 74.23 74.35 74.23 73.75 73.33 73.06 72.71 72.51 68.19
47.71 44.17 48.06 50.87 54.05 53.03 55.19 52.47 54.84 53.84 52.55 54.86 61.64 64.32 64.38 64.66 66.79 64.99 66.69 69.14 70.44 70.61 70.80 70.25 69.17 69.08 68.43 70.41 71.41 69.91 70.24 70.15 70.69 70.52 71.32 69.86 69.04 69.31 70.42 69.43 71.05 71.36 73.42 70.39 71.57 70.99 70.19 68.41 66.34
45.67 49.28 50.52 50.94 51.42 51.63 51.48 53.13 52.91 54.22 53.92 58.06 57.98 65.82 64.05 63.59 63.75 63.73 66.65 67.69 69.42 70.55 70.43 70.44 70.02 69.67 69.05 71.24 69.73 69.61 69.74 69.41 69.07 69.11 69.96 68.49 68.09 67.88 68.85 69.91 69.81 69.53 69.03 68.91 66.57 67.54 67.41 67.01 65.98
47.67 49.40 51.32 52.09 50.98 49.93 54.77 53.45 53.50 53.68 57.77 59.19 59.17 57.92 61.63 63.57 64.85 67.82 67.73 68.83 70.22 69.86 69.83 70.51 70.49 69.86 70.83 70.32 69.62 69.59 69.87 69.81 69.84 69.72 70.61 70.37 68.39 67.19 68.30 68.62 69.04 69.03 68.95 68.50 66.56 66.99 66.96 67.11 66.57
47.89 49.63 50.86 51.81 50.83 52.33 52.14 53.58 54.45 55.37 57.85 57.78 58.07 56.58 56.37 62.07 64.33 66.76 66.72 68.24 67.45 67.52 66.01 66.78 71.27 72.16 73.12 71.69 71.41 69.73 70.14 70.41 70.34 70.18 70.61 71.22 70.72 68.46 67.81 68.95 69.00 69.72 69.22 68.72 68.18 68.35 67.67 68.10 68.44
48.70 46.64 49.77 50.61 51.78 52.24 54.02 51.49 52.68 56.36 57.12 56.37 56.86 57.08 57.40 57.33 62.23 64.69 67.33 67.14 66.24 67.07 67.88 66.78 67.98 70.39 72.90 73.50 74.40 73.87 71.27 71.53 71.36 71.52 70.79 70.88 70.81 71.13 72.01 71.27 70.91 70.45 71.25 70.72 70.08 70.57 71.97 72.27 71.82
44.15 44.18 42.28 48.92 52.88 53.55 52.81 45.95 53.66 56.53 54.90 55.21 56.45 57.48 58.04 56.03 56.35 61.23 67.96 66.53 67.15 65.92 66.23 65.84 66.88 68.53 73.53 73.72 74.11 74.20 73.24 72.68 72.36 72.32 72.56 71.43 72.11 72.98 73.07 72.84 72.14 71.97 71.23 71.89 70.12 69.20 68.44 68.63 68.95
42.10 38.45 41.41 46.74 51.74 51.76 50.70 47.26 53.36 55.89 54.54 53.80 54.97 55.76 56.90 55.70 56.91 57.32 65.85 65.85 65.76 65.58 64.25 64.16 66.53 65.64 70.23 74.88 74.38 74.32 74.17 73.07 73.85 72.33 73.03 73.17 73.21 73.94 72.58 72.87 72.10 71.86 72.06 71.92 72.11 70.71 69.28 68.65 69.90
37.47 39.29 43.04 45.12 48.56 50.29 48.19 48.45 52.74 53.75 53.46 54.19 54.87 54.56 54.59 55.04 56.60 59.70 60.59 63.86 62.92 62.31 63.50 64.36 66.52 68.06 69.17 75.76 75.05 74.69 73.83 74.37 74.15 73.42 73.82 73.85 74.75 74.26 73.18 72.05 71.38 72.17 71.29 71.31 71.82 69.50 71.38 70.83 68.83
42.55 42.28 43.14 46.89 50.99 50.04 47.39 47.70 51.04 52.73 52.82 53.43 52.41 52.37 52.83 53.71 57.99 60.77 60.42 60.36 60.07 61.48 62.53 63.43 63.79 68.19 71.65 73.60 73.02 72.03 71.60 72.43 72.07 73.03 73.07 73.40 72.61 72.90 72.44 72.13 71.86 72.29 71.13 70.04 71.24 70.57 68.30 68.07 68.10
42.34 42.80 43.55 47.35 50.78 49.98 48.92 47.42 49.87 51.74 49.51 52.38 51.96 52.10 52.11 52.45 55.97 57.87 60.57 61.35 61.50 60.04 62.14 62.93 63.34 65.80 68.11 71.21 71.84 71.67 70.78 70.17 72.32 72.83 72.58 73.38 73.25 71.87 68.23 66.73 71.03 70.99 70.27 69.32 69.52 70.07 68.35 68.65 68.38
41.51 42.57 43.79 45.02 49.11 48.69 46.16 43.73 44.18 46.96 48.69 49.88 53.08 53.65 53.29 53.18 53.51 58.55 59.96 60.54 61.01 61.75 61.41 61.00 62.22 65.35 66.45 68.02 70.49 70.16 70.22 69.67 69.74 70.19 70.96 72.78 70.93 68.99 67.11 68.84 70.73 69.07 69.09 64.09 64.93 68.40 68.23 66.39 67.07
38.37 44.43 46.66 45.30 43.53 36.99 44.94 31.86 40.80 44.52 45.12 47.46 48.77 52.05 51.63 52.78 55.78 58.70 59.19 60.53 63.21 64.75 66.05 66.31 66.77 66.77 66.34 68.77 68.88 69.10 68.75 66.68 67.28 68.74 69.69 72.15 69.90 68.33 68.62 70.04 71.57 69.98 69.68 67.43 64.82 68.80 69.17 67.12 64.63
41.57 45.87 45.29 44.92 42.18 41.82 40.54 33.57 38.10 44.22 42.95 44.95 48.85 52.91 52.58 52.46 57.05 58.51 59.52 62.19 64.49 65.95 66.43 67.53 67.59 67.79 68.04 67.72 69.38 69.40 67.92 68.91 69.82 68.86 69.83 68.96 70.85 63.92 62.77 69.18 71.53 71.24 68.96 68.26 67.52 67.12 67.14 67.09 63.94
46.71 44.50 43.73 43.32 41.12 33.59 38.01 37.30 35.67 41.15 44.40 46.29 47.90 51.38 53.99 54.17 57.80 58.85 60.56 62.46 63.10 65.06 65.23 65.32 64.19 63.92 64.19 63.56 64.14 63.14 62.60 66.60 67.90 65.27 64.61 67.00 67.23 69.84 67.62 69.89 70.09 69.49 68.30 65.84 64.77 65.11 64.25 63.98 63.85
43.65 41.16 32.95 29.95 29.85 31.12 41.12 38.08 39.60 45.53 47.74 48.20 47.51 51.25 52.68 53.50 54.82 56.81 57.53 58.31 58.59 60.46 61.14 62.26 61.33 60.74 62.13 61.86 62.61 62.24 61.66 62.17 62.76 63.06 63.50 60.84 61.35 64.38 66.20 65.44 64.99 65.00 65.04 65.09 65.18 65.45 64.12 63.61 62.88
38.93 41.65 34.77 27.39 27.29 31.47 40.69 36.55 40.54 47.23 49.99 50.03 50.13 51.55 52.35 52.43 53.50 55.56 55.72 56.11 57.00 58.58 58.76 59.15 58.85 58.17 58.84 60.53 59.61 60.26 60.21 60.74 60.27 61.55 62.51 61.76 61.86 61.28 61.69 63.14 64.52 64.61 65.07 64.44 63.29 62.62 64.13 62.58 61.00
39.89 36.20 43.78 37.84 36.85 32.36 37.98 43.42 47.38 47.24 48.28 49.09 51.08 51.30 50.86 51.49 52.67 54.86 55.17 55.79 57.40 57.50 57.51 57.88 57.54 56.92 57.88 57.36 58.36 57.35 59.10 58.73 58.10 58.08 59.04 59.53 60.94 61.93 61.29 61.13 61.13 61.91 62.29 63.87 62.86 63.28 61.62 61.26 60.03
43.58 44.84 36.55 35.53 29.69 29.56 36.58 39.51 38.74 43.96 46.65 49.58 49.95 49.44 51.39 52.39 53.08 53.23 55.41 55.99 56.86 57.13 56.85 56.84 57.22 56.65 56.17 56.85 56.38 57.13 56.38 56.46 56.90 56.87 56.18 56.57 57.25 58.22 59.34 60.31 60.65 60.88 61.68 62.61 63.73 64.29 63.67 62.95 62.50
41.27 39.89 40.06 39.06 38.88 33.55 32.74 36.71 46.33 46.67 47.54 48.79 49.47 50.84 50.91 51.47 51.90 52.92 56.02 55.87 56.37 56.87 56.16 54.64 54.57 54.22 54.84 54.58 54.81 54.70 54.78 54.88 55.23 55.14 55.63 55.87 56.02 56.49 56.64 56.81 56.71 57.07 57.59 58.44 58.69 59.43 60.79 61.36 60.46
42.97 41.79 41.16 35.34 36.51 39.42 37.91 37.15 50.78 50.26 50.66 50.69 50.84 51.31 51.35 51.52 50.98 51.70 53.46 53.25 53.59 53.08 53.96 54.12 53.62 53.41 53.26 53.23 52.81 53.00 54.16 54.08 53.37 54.10 55.03 55.66 55.15 55.65 55.74 55.66 55.41 55.45 55.55 54.66 54.87 55.92 57.80 58.60 58.80
MSLP
1009.82 1009.26 1009.03 1009.33 1009.67 1008.72 1008.03 1005.52 1004.42 1003.09 1002.45 1002.31 1001.91 1003.31 1004.58 1005.21 1005.97 1006.87 1006.40 1006.85 1007.20 1008.54 1009.24 1009.59 1009.88 1010.22 1010.67 1011.02 1011.40 1011.77 1012.19 1012.62 1012.94 1013.23 1013.66 1013.98 1014.19 1014.33 1014.48 1014.67 1014.94 1015.15 1015.29 1015.39 1015.55 1015.75 1015.94 1016.05 1016.06
1009.95 1009.59 1008.91 1009.08 1009.48 1008.87 1006.90 1004.45 1003.84 1002.12 1001.04 1002.52 1002.89 1003.43 1004.42 1005.63 1005.08 1006.35 1007.21 1007.26 1007.08 1008.19 1008.97 1009.54 1009.79 1010.08 1010.63 1011.05 1011.36 1011.67 1012.12 1012.60 1012.93 1013.20 1013.66 1014.04 1014.27 1014.50 1014.56 1014.80 1015.05 1015.31 1015.38 1015.44 1015.64 1015.82 1015.96 1016.04 1016.12
1010.19 1010.01 1010.06 1009.42 1009.00 1008.15 1005.99 1004.26 1002.94 1001.58 1000.60 1000.88 1002.96 1003.29 1003.53 1004.00 1004.29 1004.61 1005.93 1007.26 1007.37 1008.21 1008.93 1009.51 1009.69 1009.94 1010.40 1010.97 1011.37 1011.69 1012.11 1012.49 1012.85 1013.17 1013.54 1013.97 1014.34 1014.52 1014.67 1014.83 1015.09 1015.32 1015.40 1015.53 1015.72 1015.84 1015.96 1016.06 1016.17
1010.10 1009.82 1009.82 1009.17 1008.69 1006.61 1005.55 1003.89 1002.62 1001.32 1000.72 1000.36 1002.18 1003.66 1004.36 1003.06 1002.52 1002.58 1005.27 1006.46 1007.85 1008.16 1008.83 1009.34 1009.63 1009.88 1010.27 1010.79 1011.37 1011.61 1012.07 1012.45 1012.78 1013.16 1013.52 1013.89 1014.20 1014.50 1014.74 1014.93 1015.10 1015.30 1015.46 1015.59 1015.73 1015.87 1015.99 1016.12 1016.27
1010.00 1010.04 1009.89 1009.28 1008.03 1006.13 1004.75 1003.21 1002.04 1001.29 1001.22 1000.84 1001.59 1003.32 1003.87 1003.81 1003.25 1003.87 1004.71 1006.07 1007.00 1008.26 1009.24 1009.39 1009.68 1010.03 1010.19 1010.63 1011.20 1011.55 1012.03 1012.51 1012.77 1013.16 1013.50 1013.79 1014.13 1014.54 1014.77 1014.94 1015.11 1015.28 1015.45 1015.55 1015.73 1015.91 1016.04 1016.20 1016.35
1010.25 1009.64 1009.98 1009.36 1007.73 1005.91 1004.16 1002.85 1001.48 1001.35 1000.65 1000.69 1001.81 1002.63 1003.57 1003.24 1003.42 1004.22 1005.08 1005.93 1007.13 1008.25 1009.10 1009.31 1009.78 1010.34 1010.38 1010.73 1011.18 1011.49 1011.89 1012.55 1012.89 1013.16 1013.53 1013.78 1014.03 1014.47 1014.74 1014.90 1015.04 1015.22 1015.35 1015.45 1015.64 1015.85 1016.02 1016.16 1016.27
1010.06 1009.91 1009.74 1008.84 1007.36 1005.80 1004.12 1002.87 1001.74 1001.62 1000.76 1001.09 1001.94 1003.01 1004.02 1004.64 1004.70 1004.38 1004.77 1006.15 1007.72 1008.69 1009.24 1009.46 1009.82 1010.22 1010.55 1010.86 1011.16 1011.68 1011.90 1012.36 1012.84 1013.23 1013.52 1013.74 1013.85 1014.24 1014.57 1014.73 1014.89 1015.10 1015.22 1015.36 1015.57 1015.73 1015.93 1016.11 1016.05
1009.41 1009.68 1009.47 1008.38 1007.00 1005.46 1004.41 1003.28 1002.82 1001.78 1001.60 1000.72 1001.39 1003.91 1006.07 1006.91 1005.45 1005.32 1006.82 1007.17 1008.15 1008.67 1009.48 1010.08 1010.16 1010.60 1010.79 1011.23 1011.58 1011.85 1012.11 1012.46 1012.85 1013.11 1013.56 1013.73 1013.92 1014.19 1014.34 1014.59 1014.73 1014.93 1015.13 1015.28 1015.47 1015.63 1015.88 1015.97 1015.94
1008.83 1009.25 1008.76 1007.72 1006.67 1005.17 1004.51 1003.93 1002.89 1002.76 1003.37 1001.90 1002.69 1004.33 1006.32 1006.57 1006.55 1006.45 1006.61 1007.62 1007.72 1009.16 1009.51 1009.85 1010.31 1010.76 1011.11 1011.58 1012.05 1012.19 1012.39 1012.62 1012.88 1013.22 1013.51 1013.66 1013.91 1014.19 1014.29 1014.46 1014.56 1014.69 1014.94 1015.14 1015.34 1015.48 1015.68 1015.76 1015.74
1008.62 1008.59 1008.01 1006.92 1006.00 1005.47 1004.43 1004.40 1004.56 1004.89 1004.26 1003.32 1004.95 1006.52 1006.51 1006.05 1008.21 1008.01 1007.55 1007.40 1008.37 1008.83 1009.74 1009.96 1010.47 1010.73 1011.00 1011.53 1012.29 1012.60 1012.72 1012.90 1013.18 1013.38 1013.63 1013.84 1013.88 1013.92 1014.00 1014.18 1014.30 1014.45 1014.71 1014.93 1015.12 1015.33 1015.43 1015.47 1015.47
1008.33 1008.08 1007.62 1006.16 1006.14 1004.86 1004.70 1004.69 1005.25 1005.89 1005.69 1006.02 1006.78 1007.05 1007.51 1007.54 1007.36 1007.15 1008.67 1008.68 1007.78 1008.00 1008.93 1009.28 1009.88 1010.20 1010.79 1011.31 1012.03 1012.45 1012.74 1013.07 1013.30 1013.49 1013.59 1013.74 1013.75 1013.81 1013.97 1014.11 1014.27 1014.44 1014.52 1014.73 1014.86 1015.05 1015.21 1015.23 1015.24
1008.39 1007.67 1006.94 1006.06 1006.45 1005.76 1005.25 1004.82 1005.34 1006.05 1007.09 1006.48 1006.76 1007.47 1007.24 1007.85 1008.81 1009.20 1009.95 1011.41 1010.41 1007.01 1007.63 1008.14 1008.74 1009.56 1010.18 1010.88 1011.35 1011.56 1012.01 1012.42 1012.89 1012.98 1013.30 1013.65 1013.69 1013.73 1013.83 1014.01 1014.10 1014.26 1014.28 1014.45 1014.56 1014.64 1014.67 1014.85 1014.77
1007.82 1007.42 1006.49 1006.01 1006.48 1006.19 1005.66 1005.87 1006.05 1005.97 1006.70 1006.08 1006.08 1005.98 1007.23 1008.08 1007.89 1008.77 1009.38 1009.92 1010.81 1008.63 1008.89 1008.40 1008.90 1009.18 1009.94 1010.68 1011.01 1011.35 1011.73 1011.80 1012.03 1012.34 1012.66 1013.03 1013.38 1013.60 1013.51 1013.67 1013.77 1013.86 1013.91 1014.01 1014.22 1014.17 1014.22 1014.27 1014.29
1007.48 1007.37 1006.58 1005.90 1006.38 1006.24 1006.44 1006.45 1006.47 1006.27 1006.61 1006.27 1006.44 1006.49 1006.72 1007.07 1007.13 1007.68 1008.84 1011.61 1008.40 1010.94 1010.67 1009.84 1010.37 1009.12 1009.49 1010.44 1010.95 1010.93 1010.80 1011.09 1011.43 1011.85 1012.07 1012.34 1012.77 1012.94 1013.11 1013.34 1013.39 1013.42 1013.36 1013.36 1013.61 1013.88 1014.08 1014.26 1013.97
1007.52 1007.52 1006.86 1005.77 1006.17 1006.30 1006.55 1007.14 1006.94 1006.52 1006.93 1006.80 1006.78 1006.72 1006.55 1006.30 1007.22 1007.24 1007.97 1009.34 1010.51 1012.83 1009.05 1012.11 1009.70 1008.32 1009.03 1009.94 1010.55 1010.77 1010.14 1010.39 1010.93 1011.24 1011.64 1011.83 1012.22 1012.29 1012.32 1012.72 1012.63 1012.45 1012.55 1012.77 1012.97 1012.95 1013.18 1013.45 1013.61
1007.42 1007.43 1007.07 1005.95 1006.10 1006.34 1006.70 1007.13 1007.02 1006.59 1007.24 1007.37 1007.11 1006.90 1006.44 1006.27 1006.30 1006.57 1006.92 1007.59 1008.03 1009.24 1010.59 1012.51 1010.44 1010.17 1009.33 1009.41 1010.15 1010.28 1009.80 1009.76 1010.27 1010.83 1011.11 1011.29 1011.56 1011.73 1011.80 1012.01 1012.11 1011.86 1011.76 1011.87 1012.18 1012.51 1012.70 1013.04 1013.21
1007.15 1007.12 1006.65 1006.35 1005.81 1006.63 1006.99 1007.38 1006.89 1006.58 1007.02 1007.48 1007.38 1007.12 1006.74 1006.40 1006.65 1006.45 1006.17 1007.15 1008.57 1009.06 1008.78 1009.50 1007.03 1007.16 1008.87 1009.78 1009.39 1009.80 1009.65 1009.71 1009.66 1010.03 1010.51 1010.71 1010.63 1010.95 1011.24 1011.39 1011.39 1011.64 1012.11 1012.07 1012.08 1012.13 1012.71 1012.86 1013.20
1006.55 1006.47 1006.15 1006.16 1006.36 1006.98 1007.44 1007.72 1007.54 1006.83 1007.16 1007.33 1007.42 1006.95 1006.90 1006.71 1007.04 1007.00 1007.28 1007.28 1007.87 1008.78 1009.19 1009.32 1008.07 1007.79 1009.11 1009.78 1009.24 1009.73 1009.69 1009.66 1009.30 1009.85 1009.92 1010.07 1010.29 1010.62 1011.06 1011.37 1011.70 1011.61 1012.19 1012.20 1012.25 1012.28 1012.69 1012.68 1013.08
1006.20 1006.01 1006.08 1006.14 1006.48 1007.10 1007.52 1008.05 1008.04 1007.44 1007.56 1007.45 1007.17 1007.13 1007.05 1006.75 1006.58 1006.57 1006.82 1007.42 1007.62 1007.85 1008.78 1008.97 1009.64 1009.37 1009.46 1009.28 1009.46 1009.68 1009.58 1009.55 1009.42 1009.62 1009.31 1009.46 1010.26 1010.77 1011.16 1011.26 1011.51 1012.03 1012.32 1012.62 1011.72 1012.20 1012.86 1012.63 1012.68
1005.45 1005.48 1005.56 1005.81 1005.62 1006.37 1007.41 1007.90 1007.90 1007.70 1007.44 1007.20 1007.19 1007.27 1007.01 1006.65 1006.18 1006.50 1006.89 1007.19 1007.43 1007.50 1007.68 1007.56 1007.58 1007.66 1008.34 1008.82 1008.94 1009.06 1009.20 1008.91 1009.10 1009.17 1009.05 1009.10 1009.63 1009.96 1010.70 1011.45 1011.39 1011.48 1012.06 1012.76 1012.62 1012.38 1012.35 1012.32 1012.18
1004.57 1004.85 1004.95 1005.36 1005.34 1006.07 1006.77 1007.82 1007.61 1007.35 1007.08 1006.84 1006.66 1006.59 1006.60 1006.31 1006.43 1006.62 1006.83 1007.23 1007.81 1007.90 1008.23 1008.32 1008.28 1008.37 1008.35 1008.62 1008.82 1008.98 1009.15 1009.16 1009.31 1009.14 1008.96 1009.21 1009.30 1009.75 1009.82 1010.51 1011.01 1011.50 1011.66 1012.11 1011.71 1011.66 1012.41 1012.37 1012.02
1003.82 1004.04 1004.43 1005.38 1005.26 1006.59 1006.96 1007.58 1007.53 1007.05 1006.85 1006.70 1006.44 1006.34 1006.13 1006.04 1006.30 1006.56 1006.82 1007.34 1007.97 1008.52 1008.79 1008.83 1008.63 1008.70 1008.74 1008.76 1008.78 1009.27 1009.79 1009.77 1009.07 1008.85 1008.77 1009.11 1009.85 1010.19 1010.83 1011.47 1010.90 1011.12 1011.30 1011.98 1011.77 1012.35 1011.70 1011.86 1012.20
1003.33 1003.51 1004.08 1004.34 1005.11 1005.96 1006.60 1007.42 1006.60 1006.64 1006.75 1006.37 1006.23 1006.17 1005.77 1005.80 1006.02 1006.46 1007.26 1007.68 1008.46 1008.83 1009.22 1009.38 1009.50 1009.52 1009.31 1009.24 1009.29 1009.56 1009.74 1009.59 1009.42 1009.37 1009.12 1009.56 1009.86 1009.86 1008.94 1010.59 1010.52 1010.56 1011.18 1011.54 1012.13 1011.75 1011.34 1011.34 1011.76
1002.52 1003.30 1004.18 1004.54 1005.06 1006.14 1006.57 1006.42 1005.81 1006.01 1005.20 1005.44 1005.57 1006.11 1005.95 1006.30 1006.30 1006.89 1007.40 1008.05 1008.84 1009.25 1009.71 1010.07 1010.10 1009.97 1009.98 1009.97 1010.09 1010.07 1010.10 1009.92 1009.74 1009.82 1010.24 1010.48 1010.38 1010.41 1011.14 1010.66 1010.30 1010.38 1010.41 1011.16 1011.52 1011.45 1011.55 1011.48 1011.57
1002.07 1003.36 1006.22 1006.26 1005.71 1005.97 1005.82 1005.45 1004.62 1003.97 1003.93 1004.17 1005.10 1005.94 1006.06 1006.59 1006.94 1007.60 1008.02 1008.70 1009.31 1009.94 1010.31 1010.32 1010.39 1010.62 1010.53 1010.43 1010.44 1010.50 1010.58 1010.61 1010.75 1010.63 1010.76 1010.82 1010.90 1010.75 1010.29 1010.30 1010.40 1010.73 1010.62 1010.72 1010.59 1010.54 1010.80 1011.16 1011.32
1002.11 1004.48 1006.20 1007.14 1006.70 1006.29 1005.26 1004.57 1003.28 1002.11 1002.54 1003.38 1004.67 1005.59 1006.43 1006.89 1007.33 1008.10 1008.76 1009.19 1009.73 1010.32 1010.38 1010.65 1010.97 1010.98 1010.94 1010.89 1011.08 1011.00 1011.06 1011.20 1011.30 1011.29 1011.12 1010.94 1010.84 1010.93 1010.55 1010.74 1010.51 1010.38 1010.25 1010.23 1010.19 1010.09 1010.02 1010.34 1010.74
1001.40 1002.95 1004.14 1006.01 1007.14 1007.19 1006.58 1004.75 1002.94 1001.40 1002.50 1003.64 1004.82 1005.62 1006.58 1007.10 1007.48 1008.29 1008.81 1009.19 1010.15 1010.36 1010.45 1010.60 1010.92 1011.21 1011.08 1011.37 1011.25 1011.33 1011.37 1011.52 1011.54 1011.27 1011.36 1011.12 1010.97 1010.75 1010.62 1010.61 1010.45 1010.37 1010.10 1010.16 1009.95 1009.83 1009.67 1009.98 1010.23
1000.69 1002.12 1003.90 1006.06 1007.68 1008.12 1008.18 1007.99 1005.43 1003.66 1003.50 1004.08 1005.09 1005.95 1006.67 1006.94 1007.46 1008.52 1009.16 1009.58 1009.99 1010.01 1010.24 1010.50 1011.02 1011.23 1011.41 1011.36 1011.63 1011.59 1011.51 1011.36 1011.44 1011.60 1011.50 1011.40 1011.09 1010.93 1010.95 1010.84 1010.79 1010.42 1010.37 1010.04 1009.95 1009.64 1009.63 1009.88 1009.91
1001.05 1001.89 1003.32 1004.87 1006.35 1008.52 1009.94 1009.42 1007.79 1006.19 1004.92 1004.78 1005.73 1006.44 1006.95 1007.68 1008.24 1008.64 1009.07 1009.49 1009.92 1010.07 1010.33 1010.52 1011.03 1011.32 1011.72 1011.55 1011.65 1011.74 1011.70 1011.86 1011.97 1012.01 1011.80 1011.52 1011.15 1011.04 1010.83 1010.91 1010.73 1011.09 1010.93 1010.49 1010.28 1009.87 1009.78 1009.87 1009.85
1001.11 1002.15 1003.43 1005.02 1006.44 1008.05 1009.47 1009.03 1007.75 1006.59 1007.02 1005.47 1005.89 1006.58 1007.06 1007.67 1008.05 1008.57 1009.05 1009.40 1009.86 1010.49 1010.57 1010.65 1010.92 1011.28 1011.74 1011.81 1011.72 1011.99 1012.08 1012.22 1012.33 1012.29 1012.02 1011.75 1011.62 1011.42 1011.22 1010.89 1010.87 1010.80 1010.39 1010.14 1010.28 1010.13 1009.95 1009.78 1009.65
Wind_Speed
8 10 5 1 4 1 4 10 7 2 6 10 22 17 10 7 6 2 8 17 24 15 13 14 17 17 17 17 16 15 15 14 14 14 13 12 12 12 13 12 11 10 11 10 10 9 9 9 8
5 8 3 2 2 4 7 12 10 8 8 23 21 20 16 8 5 13 10 16 22 17 12 12 17 18 17 17 17 17 16 15 14 15 13 12 12 12 12 11 10 10 10 9 9 9 8 7 6
4 5 2 4 4 8 6 5 17 8 6 6 8 9 6 14 14 11 20 18 19 16 12 12 17 18 19 17 17 17 17 16 15 15 14 13 12 12 11 10 10 9 9 9 8 8 6 6 5
3 2 4 1 9 17 16 18 16 4 8 2 12 7 1 6 14 19 24 22 17 15 13 16 18 18 19 18 17 18 17 16 16 15 14 13 13 11 10 10 9 8 8 8 8 7 6 5 4
2 3 3 4 10 14 15 16 7 3 8 9 11 8 4 3 8 25 25 20 20 15 12 13 18 18 19 19 18 17 17 16 16 15 14 14 12 11 10 10 9 8 8 7 7 6 5 4 3
3 4 2 6 14 14 15 8 3 6 9 8 6 12 7 5 24 21 20 19 18 16 14 13 16 16 17 18 17 17 16 15 14 14 14 13 12 11 10 9 8 7 7 7 7 6 5 5 4
6 2 6 9 13 11 12 8 7 4 11 6 8 6 6 11 6 17 19 17 17 15 12 9 10 13 16 16 16 16 16 15 14 13 13 13 13 12 11 10 9 8 7 7 7 7 6 6 7
5 4 10 10 13 15 4 7 16 4 7 8 8 7 6 4 10 6 14 17 15 14 12 8 7 7 8 8 14 14 15 14 14 13 12 12 12 11 11 10 9 8 8 7 7 7 7 7 8
5 1 9 13 12 17 4 5 12 17 16 4 6 10 12 12 16 12 16 13 16 12 11 9 8 7 6 6 9 11 15 14 13 12 12 10 5 6 8 9 11 11 10 9 8 8 8 9 9
6 4 8 10 12 7 4 9 6 11 21 6 14 16 16 23 7 11 8 14 14 14 12 10 9 8 8 8 6 4 6 4 4 5 6 4 6 6 9 11 13 13 11 10 10 9 9 9 4
5 8 11 15 6 8 4 5 3 7 11 16 3 13 7 17 21 20 12 10 19 19 15 15 12 9 8 8 6 3 3 3 4 6 6 6 5 5 5 4 5 4 10 4 6 6 5 6 5
10 10 17 16 7 8 5 4 7 5 6 12 13 8 13 12 8 6 12 18 23 23 22 20 18 14 10 8 8 8 6 6 5 6 8 5 4 4 4 3 6 5 4 6 6 4 6 7 8
15 13 17 11 7 3 6 6 3 11 9 15 19 20 14 14 14 13 8 24 22 6 6 15 15 11 7 10 7 8 8 7 8 8 9 7 5 5 4 5 5 5 4 6 5 6 6 8 8
6 12 16 13 9 6 5 2 6 2 8 14 15 15 11 0 9 14 15 13 9 18 8 10 5 2 8 8 7 8 8 9 8 8 9 12 7 6 5 5 5 5 6 5 5 5 5 5 6
12 13 15 19 7 5 7 4 7 12 6 9 10 14 12 13 7 6 17 21 21 6 9 11 1 9 5 6 5 6 7 9 8 8 11 12 8 7 6 5 5 5 5 7 6 7 5 4 2
12 9 14 20 8 4 9 8 6 9 3 8 8 11 13 14 14 9 16 19 20 28 20 10 8 9 9 7 6 4 4 4 6 6 8 13 11 8 6 5 4 5 4 3 2 4 3 3 4
11 14 16 8 5 1 8 4 10 10 8 9 8 7 13 9 10 14 8 15 15 17 16 17 13 8 8 11 6 6 6 4 3 4 5 12 14 11 6 5 5 4 2 2 2 1 2 3 1
12 17 11 10 4 6 7 4 6 8 8 10 8 7 7 10 4 6 10 6 10 12 10 13 9 9 7 9 4 3 4 4 4 4 5 8 9 11 7 2 2 2 1 3 3 2 2 3 3
13 11 13 5 10 6 8 6 13 13 9 12 6 6 8 9 2 7 7 7 8 7 14 16 15 16 15 6 4 3 4 4 4 5 8 7 5 7 6 5 2 4 5 6 5 3 4 4 2
18 11 7 8 15 8 17 15 12 14 7 8 8 9 9 8 3 6 8 9 9 6 6 7 5 4 3 3 2 2 4 4 4 7 7 6 10 10 6 5 6 5 1 4 5 5 3 4 5
18 13 10 13 13 11 7 14 10 8 8 7 9 10 7 7 6 7 8 9 7 10 8 6 6 4 3 2 1 1 0 2 2 3 4 5 10 9 8 7 5 4 4 4 9 6 7 4 3
16 14 16 20 10 7 14 5 8 12 9 10 11 9 9 5 3 8 9 9 10 9 8 9 9 8 4 6 2 2 1 3 4 2 2 4 4 6 4 7 10 9 5 8 7 13 5 4 5
17 13 20 26 6 14 12 5 9 11 8 12 11 14 10 7 9 9 10 11 9 10 8 8 8 9 8 8 6 4 3 1 2 3 7 7 5 5 6 20 12 8 5 4 4 6 5 4 2
18 8 6 6 9 5 11 11 7 10 17 14 6 7 18 7 12 11 10 13 10 9 8 7 7 7 7 11 11 10 10 8 7 7 7 4 1 6 12 6 6 5 2 1 1 4 2 2 3
8 7 5 7 1 5 17 6 11 20 18 20 12 6 10 10 10 10 13 10 9 9 6 7 8 8 8 9 9 9 9 9 7 7 4 5 4 4 5 2 4 1 1 2 3 2 3 5 2
8 11 9 6 4 5 6 13 13 13 25 18 12 12 9 9 10 12 11 9 9 8 8 8 7 7 8 8 8 7 8 4 4 5 4 4 4 3 7 5 5 3 4 6 5 3 3 3 4
7 5 14 4 5 2 4 10 9 5 19 17 16 11 10 10 10 12 10 9 8 8 8 8 7 6 7 7 7 7 7 7 6 6 4 4 4 4 7 7 6 6 6 6 4 4 4 5 6
6 8 5 2 4 2 3 8 2 8 15 16 14 10 7 8 8 8 8 9 7 7 7 8 6 5 5 6 5 5 6 7 7 7 8 7 5 4 5 6 6 7 7 6 6 4 5 5 5
5 2 3 4 7 6 1 6 5 7 3 14 10 10 10 9 9 10 13 10 9 7 7 7 7 6 2 4 3 5 5 5 6 6 6 6 7 8 7 6 5 5 7 7 7 7 7 7 7
4 10 7 6 4 5 6 6 4 6 11 7 14 11 9 8 8 8 9 9 8 8 7 7 5 4 4 4 5 6 6 6 6 6 7 7 7 7 7 7 7 7 7 6 6 7 7 7 8
Wind_Direction
303 300 293 349 24 130 257 263 207 276 337 55 84 124 99 96 110 197 108 133 128 136 146 141 139 138 140 140 137 136 133 131 128 123 120 119 118 114 108 109 110 107 105 106 104 98 97 97 94
315 316 304 261 133 295 268 245 276 196 163 105 94 113 108 119 172 116 115 136 131 135 143 147 144 141 143 144 143 140 140 139 136 132 132 132 130 124 120 118 116 114 116 116 111 109 110 112 111
284 239 39 157 194 239 254 325 316 348 78 156 106 75 140 152 173 138 129 138 128 138 142 150 144 142 145 147 147 145 145 145 143 141 141 139 137 135 132 128 127 128 129 124 121 126 127 128 127
299 351 306 93 257 258 244 268 281 23 305 118 128 100 314 253 164 134 137 136 134 138 143 151 146 146 147 148 151 149 150 151 149 148 146 145 144 145 143 139 138 141 136 132 139 145 150 148 145
209 284 232 233 255 267 271 277 275 12 280 320 128 179 183 273 108 130 134 139 140 136 146 149 148 149 147 151 154 151 152 154 153 151 151 150 148 150 150 148 149 149 144 143 153 162 168 171 184
275 142 350 236 260 270 272 265 28 324 290 318 58 128 163 223 141 137 137 142 142 142 151 152 148 150 148 152 153 151 150 154 155 154 156 153 152 157 157 156 158 160 158 159 167 179 193 201 218
223 252 232 256 266 277 266 307 164 272 289 315 130 100 112 108 88 135 143 132 133 139 138 141 147 151 150 151 152 154 153 155 157 159 159 159 159 163 164 166 169 176 176 177 182 194 206 219 237
231 177 259 251 260 271 299 347 19 336 273 322 13 153 113 293 46 122 103 122 132 135 141 145 134 142 142 150 155 156 154 153 159 162 165 165 165 170 171 177 183 189 193 192 197 207 215 226 242
268 270 239 245 252 265 5 338 13 332 343 354 40 95 123 62 21 24 138 143 138 139 149 152 151 147 133 137 166 157 158 160 163 167 169 165 162 177 181 185 196 198 201 201 207 216 225 236 244
178 155 240 254 263 282 188 81 48 347 321 348 65 78 87 92 50 334 310 151 149 149 163 161 157 153 152 163 145 142 162 155 158 165 171 174 188 186 190 197 207 202 205 205 209 218 228 238 237
251 228 251 258 335 10 260 70 37 1 344 1 28 117 89 131 153 195 27 270 164 166 168 165 161 164 167 155 153 159 160 166 183 187 180 197 205 202 205 196 202 195 210 202 206 214 221 224 233
248 230 242 261 305 336 5 68 2 63 287 335 348 148 146 155 168 268 354 321 297 170 169 164 163 172 178 149 167 171 170 177 185 188 182 190 220 208 211 182 188 189 203 205 212 201 213 219 236
229 243 250 247 239 153 30 358 27 312 329 336 341 339 149 154 170 155 94 9 325 43 113 154 158 166 142 162 171 177 182 186 192 190 188 190 202 218 218 184 186 195 197 208 215 216 211 217 222
239 236 256 250 208 195 145 263 41 298 331 328 330 326 351 117 150 116 117 154 34 35 21 18 37 107 133 174 183 194 181 192 187 195 198 194 197 205 206 207 193 196 198 209 208 227 221 229 223
224 239 245 260 220 181 117 269 244 275 289 299 312 311 326 331 194 223 148 133 121 64 28 347 82 322 268 178 193 190 197 184 192 195 199 195 201 204 193 206 216 220 198 198 208 220 211 191 203
236 241 237 244 153 160 127 241 230 272 358 295 288 309 315 318 316 192 166 149 151 155 159 194 229 261 286 188 200 225 204 189 185 184 198 194 197 199 195 189 205 230 249 240 191 210 223 219 230
236 227 226 236 220 183 141 158 263 277 289 263 279 274 290 314 359 351 169 132 147 155 159 173 171 216 229 235 193 199 209 220 228 215 176 195 200 196 187 195 203 209 217 245 192 272 202 210 219
219 216 225 202 230 216 182 184 255 276 289 282 229 238 274 305 342 45 68 124 152 139 164 186 190 207 224 230 175 202 216 230 218 222 225 183 201 191 191 184 210 193 331 300 287 117 216 235 229
233 210 218 188 231 220 152 187 233 268 271 260 241 245 269 280 147 71 47 107 124 116 148 194 221 236 209 201 179 192 202 215 225 227 225 198 170 130 138 199 196 200 208 231 232 122 228 261 249
238 238 234 212 226 204 198 220 234 228 237 231 213 227 243 275 287 73 61 40 44 58 58 50 34 49 109 154 198 179 202 225 215 224 223 171 159 163 179 174 210 201 98 320 306 235 208 218 200
234 214 215 229 204 181 171 209 211 238 227 248 245 224 239 248 218 106 99 78 54 46 47 53 58 27 338 293 226 263 349 303 267 252 244 158 166 155 190 203 194 184 168 190 232 252 203 221 239
233 217 215 243 247 178 193 240 215 209 211 230 253 226 236 213 111 110 77 63 67 60 53 43 30 16 19 322 156 133 198 272 249 259 259 167 130 60 55 300 225 202 197 199 241 252 216 164 211
235 246 203 229 221 185 190 126 241 182 206 225 227 224 248 197 136 92 91 79 75 64 47 44 38 32 21 19 63 65 35 36 327 336 39 40 119 150 92 242 222 212 214 186 234 264 215 189 173
217 209 2 272 180 182 229 181 253 182 196 209 193 226 226 138 115 108 95 84 82 75 62 52 53 48 50 56 52 50 40 12 28 26 24 25 134 173 218 238 232 231 158 151 306 252 320 235 183
224 83 14 337 348 185 219 198 224 195 195 199 156 136 108 106 96 93 89 86 75 82 90 75 59 40 35 46 49 47 43 50 45 28 9 24 12 348 318 103 76 312 279 207 186 180 177 240 218
213 147 138 241 201 245 234 239 250 217 193 179 144 143 129 119 115 120 118 114 108 96 91 82 68 54 47 43 38 39 41 50 61 42 25 18 28 2 13 12 0 286 248 216 199 200 198 200 211
224 174 176 106 358 26 329 333 333 155 153 149 147 139 146 148 136 139 137 125 123 119 120 113 87 60 52 45 40 29 30 29 17 22 32 20 5 2 4 1 358 336 354 323 281 231 222 215 222
140 193 166 150 160 285 320 288 280 119 139 144 138 141 132 129 118 137 132 143 159 147 126 105 106 113 99 73 37 28 25 22 13 13 1 355 356 14 355 340 332 335 320 315 310 291 261 244 244
148 9 46 137 146 131 92 270 290 8 187 133 122 121 124 138 155 150 161 163 161 138 120 106 78 60 78 80 56 37 15 0 358 355 348 346 347 344 347 340 347 319 308 307 305 292 282 269 258
212 172 168 124 275 106 88 257 220 48 348 152 134 131 134 116 100 90 115 105 113 131 137 138 128 82 86 65 45 25 15 8 360 343 335 334 323 321 319 324 319 314 311 307 305 302 298 286 279